CCA981 ZBAA-KJFK

Flight info

Callsign CCA981
Flight time N/A
Altitude 34100
Route IDKEX5Y IDKEX B339 POLHO/K0911S1010 Y327 VENID/K0906S1070 Y327 SULOK/K0906F350 N615 TEMGA/K0930F370 N615 TIGLA DCT 76N135E 80N144E 82N160E 84N180E DCT SULAD DCT 85N150W/N0499F370 85N141W 85N135W 85N130W/N0499F380 83N120W/N0497F370 80N106W/N0494F390 78N100W 75N093W 7330N09000W 70N086W/N0494F400 65N082W DCT RONPU/N0501F390 DCT 60N079W/N0500F400 DCT LEVAG DCT 55N077W DCT IMUNI DCT NOTUV DCT SEGUK/N0498F410 DCT 50N075W/N0499F400 DCT IKNAR Q903 TAMKO/N0498F410 Q903 DUNUP/N0499F400 DCT PBERG Q133 CAM DCT PONCT PUCKY1
Aircraft A359/H-SDE2E3GHIJ3J4J5LM1ORWXY/LB1D1

Departure

Time 2026-05-07 14:35
Airport Beijing Capital International Airport (ZBAA)

Arrival

Time N/A
Airport John F. Kennedy International Airport (KJFK)
Time Latitude Longitude Altitude Speed Heading
2026-05-07 14:22 40.06493 116.60621 130 ft 1 kts 83°
2026-05-07 14:23 40.06491 116.60589 124 ft 4 kts 83°
2026-05-07 14:23 40.06488 116.60554 131 ft 4 kts 83°
2026-05-07 14:23 40.06486 116.60526 135 ft 4 kts 96°
2026-05-07 14:23 40.06494 116.60495 124 ft 4 kts 136°
2026-05-07 14:24 40.06517 116.60479 125 ft 3 kts 169°
2026-05-07 14:24 40.06543 116.60475 126 ft 3 kts 173°
2026-05-07 14:24 40.06526 116.60477 126 ft 4 kts 173°
2026-05-07 14:24 40.06503 116.60480 125 ft 1 kts 173°
2026-05-07 14:27 40.06499 116.60481 130 ft 2 kts 173°
2026-05-07 14:28 40.06473 116.60485 125 ft 6 kts 173°
2026-05-07 14:28 40.06426 116.60492 127 ft 7 kts 173°
2026-05-07 14:28 40.06374 116.60500 126 ft 8 kts 173°
2026-05-07 14:28 40.06320 116.60504 125 ft 8 kts 190°
2026-05-07 14:29 40.06289 116.60457 130 ft 7 kts 252°
2026-05-07 14:29 40.06281 116.60396 130 ft 7 kts 261°
2026-05-07 14:29 40.06275 116.60331 125 ft 7 kts 263°
2026-05-07 14:29 40.06259 116.60269 124 ft 7 kts 226°
2026-05-07 14:30 40.06215 116.60262 126 ft 7 kts 184°
2026-05-07 14:30 40.06181 116.60229 130 ft 6 kts 250°
2026-05-07 14:30 40.06160 116.60175 124 ft 7 kts 223°
2026-05-07 14:30 40.06110 116.60164 125 ft 8 kts 177°
2026-05-07 14:31 40.06045 116.60172 126 ft 10 kts 174°
2026-05-07 14:31 40.05966 116.60184 124 ft 12 kts 173°
2026-05-07 14:31 40.05874 116.60198 125 ft 14 kts 173°
2026-05-07 14:31 40.05778 116.60214 127 ft 14 kts 173°
2026-05-07 14:32 40.05686 116.60228 127 ft 12 kts 176°
2026-05-07 14:32 40.05629 116.60173 124 ft 10 kts 263°
2026-05-07 14:32 40.05624 116.60082 128 ft 10 kts 265°
2026-05-07 14:32 40.05644 116.60008 129 ft 8 kts 321°
2026-05-07 14:33 40.05678 116.59996 124 ft 0 kts 352°
2026-05-07 14:34 40.05690 116.59994 123 ft 10 kts 352°
2026-05-07 14:34 40.05988 116.59946 126 ft 78 kts 353°
2026-05-07 14:35 40.06744 116.59827 126 ft 140 kts 353°
2026-05-07 14:35 40.07815 116.59663 190 ft 183 kts 352°
2026-05-07 14:35 40.09077 116.59484 1105 ft 169 kts 353°
2026-05-07 14:35 40.10212 116.59331 1825 ft 167 kts 353°
2026-05-07 14:36 40.11396 116.59156 2074 ft 177 kts 351°
2026-05-07 14:36 40.12660 116.58936 2279 ft 190 kts 352°
2026-05-07 14:36 40.14026 116.58703 2498 ft 205 kts 352°
2026-05-07 14:36 40.15503 116.58459 2688 ft 223 kts 352°
2026-05-07 14:37 40.17100 116.58203 2932 ft 238 kts 353°
2026-05-07 14:37 40.20487 116.57667 3883 ft 249 kts 353°
2026-05-07 14:37 40.22217 116.57393 4407 ft 252 kts 352°
2026-05-07 14:38 40.23962 116.57116 4962 ft 253 kts 352°
2026-05-07 14:38 40.25721 116.56838 5493 ft 256 kts 352°
2026-05-07 14:38 40.27501 116.56545 6030 ft 260 kts 352°
2026-05-07 14:38 40.29296 116.56235 6672 ft 259 kts 352°
2026-05-07 14:39 40.31085 116.55929 7296 ft 258 kts 352°
2026-05-07 14:39 40.32876 116.55622 7899 ft 260 kts 352°
2026-05-07 14:39 40.34683 116.55318 8495 ft 263 kts 351°
2026-05-07 14:39 40.36510 116.55010 9103 ft 266 kts 351°
2026-05-07 14:40 40.38354 116.54702 9775 ft 268 kts 351°
2026-05-07 14:40 40.40213 116.54390 10336 ft 273 kts 351°
2026-05-07 14:40 40.42154 116.54120 10626 ft 288 kts 356°
2026-05-07 14:40 40.44175 116.54160 10900 ft 302 kts
2026-05-07 14:41 40.46345 116.54323 11206 ft 313 kts
2026-05-07 14:41 40.48543 116.54489 11494 ft 327 kts
2026-05-07 14:41 40.50854 116.54660 11787 ft 339 kts
2026-05-07 14:41 40.53289 116.54846 12058 ft 351 kts
2026-05-07 14:42 40.55732 116.55036 12321 ft 362 kts
2026-05-07 14:42 40.58265 116.55219 12794 ft 366 kts
2026-05-07 14:42 40.60728 116.55397 13266 ft 370 kts
2026-05-07 14:42 40.63286 116.55588 13831 ft 372 kts
2026-05-07 14:43 40.65881 116.55782 14348 ft 374 kts
2026-05-07 14:43 40.68496 116.55977 14841 ft 376 kts
2026-05-07 14:43 40.71117 116.56173 15334 ft 378 kts
2026-05-07 14:43 40.73749 116.56369 15862 ft 380 kts
2026-05-07 14:44 40.76396 116.56563 16403 ft 380 kts
2026-05-07 14:44 40.79032 116.56595 16952 ft 379 kts 356°
2026-05-07 14:44 40.81672 116.56445 17441 ft 381 kts 354°
2026-05-07 14:44 40.84330 116.56199 17832 ft 385 kts 354°
2026-05-07 14:45 40.87012 116.55912 18356 ft 388 kts 353°
2026-05-07 14:45 40.89706 116.55622 18856 ft 390 kts 353°
2026-05-07 14:45 40.92381 116.55341 19299 ft 392 kts 353°
2026-05-07 14:45 40.95147 116.55063 19752 ft 394 kts 353°
2026-05-07 14:46 40.97846 116.54800 20220 ft 397 kts 353°
2026-05-07 14:46 41.00603 116.54544 20745 ft 398 kts 353°
2026-05-07 14:46 41.03372 116.54286 21227 ft 399 kts 353°
2026-05-07 14:46 41.06146 116.54028 21658 ft 402 kts 353°